DELTA 1 DEB

Satellite information

Favourite Embed

Satellite Type and Status

DEBRISIN ORBIT

Key statistics

Satellite DELTA 1 DEB at a glance.

Uptime

19037

Days in orbit

Revolutions

≈ 12.1

Per day

Orbit

SSO

Sun Synchronous Orbit

Inclination

101.8

Latest

Satellite identification and parameters

Extended collection of information and parameters for DELTA 1 DEB.

Object identification

Identified? True

Debris? True

Object name: DELTA 1 DEB

International designator: 1973-086FB

Object number (NORAD): 7193

Object ID (CCSDS): 7193

Country: UNITED STATES OF AMERICA (US)

Current information (Y/N): Y

RCS size: SMALL

Orbital parameters

Period: 119.086 minutes

Inclination: 101.847 deg

SMA: 8018.044 km

Apoapsis: 1881.765 km

Periapsis: 1398.054 km

RAAN: 63.418 deg

Eccentricy: 0.03016386

Argument of periapsis: 154.0864 deg

Mean anomaly: 236.0407 deg

Mean motion: 12.09205397 rev/day

Mean motion (dot): -0.00000141 rev/day2

B* drag term: -0.00098580668 1/REarth

Two-line elements (TLE)

Creation date: Dec. 18, 2025, 11:20 a.m.

Reference frame: TEME

Reference center: EARTH

Epoch: Dec. 18, 2025, 3:56 a.m. UTC

TLE line 0: 0 DELTA 1 DEB

TLE line 1: 1 07193U 73086FB 25352.16457671 -.00000141 00000-0 -98581-3 0 9990

TLE line 2: 2 07193 101.8470 63.4180 0301639 154.0864 236.0407 12.09205397292918

Live tracking on map

Real-time ground track for satellite DELTA 1 DEB.

In-orbit conjunctions

A list of the most updated potential collisions computed for object DELTA 1 DEB.

Target Orbit TCA Probability of collision Miss distance Type
SL-14 R/B LEO 2024-08-08 17:02:11 0.001992517 42.0 (m) ROCKET BODY

Associated space launch

Meteorological satellite using radiometric imaging

DELTA 1 DEB was lifted into orbit during the mission ‘Delta 0300 | NOAA 3’, on board a Delta 0300 space rocket.

The launch took place on Nov. 6, 1973, 5:02 p.m. from Space Launch Complex 2W.

For more information about the launch, click the button.

Launch to space Delta 0300 | NOAA 3
Delta 0300 | NOAA 3

Agency: N/A

Status: Launch Successful

Launch date: Nov. 6, 1973, 5:02 p.m. UTC

Rocket: Delta 0300

Launch pad: Space Launch Complex 2W

Location: Vandenberg SFB, CA, USA

...

Latest news about this satellite

There are no fresh news available about this satellite. Check back as we update our databases every day.


Newsletter sign-up

Weekly statistics, charts and insights to help you stay on top of the space industry.